Weather History for Canby, MN

Change the Weather History Date:

Friday, September 7, 2012

  Actual Average (KMML) Record (KMML)
Temperature  
Mean Temperature 60 °F -  
Max Temperature 68 °F 79 °F 100 °F (1976)
Min Temperature 52 °F 54 °F 38 °F (1986)
Degree Days  
Heating Degree Days 5    
Growing Degree Days 10 (Base 50)    
Moisture  
Dew Point 47 °F    
Average Humidity 67    
Maximum Humidity 92    
Minimum Humidity 35    
Precipitation  
Precipitation 0.00 in - - ()
Sea Level Pressure  
Sea Level Pressure 30.06 in    
Wind  
Wind Speed 9 mph (NW)    
Max Wind Speed 15 mph    
Max Gust Speed 24 mph    
Visibility 10 miles    
Events      
Averages and records for this station are not official NWS values.
T = Trace of Precipitation, MM = Missing Value Source: NWS Daily Summary

Daily Weather History Graph

Daily Weather History Graph

Search for Another Location

Airport:

Trip Planner

Search our weather history database for the weather conditions in past years. The results will help you decide how hot, cold, wet, or windy it might be!

Date:

Astronomy

Sep. 07, 2012 Rise Set
Actual Time 6:55 AM CDT 7:49 PM CDT
Civil Twilight 6:25 AM CDT 8:19 PM CDT
Nautical Twilight 5:49 AM CDT 8:54 PM CDT
Astronomical Twilight 5:12 AM CDT 9:31 PM CDT
Moon 11:28 PM CDT (9/7) 2:06 PM CDT (9/7)
Length of Visible Light 13h 54m
Length of Day
12h 54m
Waning Gibbous, 58% of the Moon is Illuminated
Sep 7
Waning Gibbous
Sep 8
Last Quarter
Sep 15
New
Sep 22
First Quarter
Sep 29
Full

Hourly Weather History & Observations

Time (CDT) Temp. Dew Point Humidity Pressure Visibility Wind Dir Wind Speed Gust Speed Precip Events Conditions
12:14 AM 61.0 °F 53.6 °F 77% 29.95 in 10.0 mi North 6.9 mph - N/A   Clear
12:34 AM 60.8 °F 53.6 °F 77% 29.95 in 10.0 mi NNW 5.8 mph - N/A   Clear
12:54 AM 59.9 °F 53.6 °F 80% 29.96 in 10.0 mi NNW 9.2 mph - N/A   Clear
1:14 AM 59.2 °F 53.8 °F 82% 29.96 in 10.0 mi NNW 8.1 mph - N/A   Clear
1:34 AM 58.6 °F 54.1 °F 85% 29.96 in 10.0 mi NNW 8.1 mph - N/A   Scattered Clouds
1:54 AM 58.5 °F 54.5 °F 87% 29.95 in 10.0 mi North 5.8 mph - N/A   Mostly Cloudy
2:14 AM 58.3 °F 54.5 °F 87% 29.96 in 10.0 mi NW 8.1 mph - N/A   Mostly Cloudy
2:34 AM 58.1 °F 54.7 °F 88% 29.96 in 10.0 mi NW 6.9 mph - N/A   Scattered Clouds
2:54 AM 58.1 °F 54.5 °F 88% 29.96 in 10.0 mi NW 8.1 mph - N/A   Scattered Clouds
3:14 AM 57.6 °F 53.8 °F 87% 29.96 in 10.0 mi NNW 8.1 mph - N/A   Scattered Clouds
3:34 AM 57.2 °F 53.4 °F 87% 29.97 in 10.0 mi NW 6.9 mph - N/A   Scattered Clouds
3:54 AM 56.5 °F 52.7 °F 87% 29.98 in 10.0 mi NW 6.9 mph - N/A   Scattered Clouds
4:14 AM 56.3 °F 52.7 °F 88% 29.99 in 10.0 mi NW 6.9 mph - N/A   Clear
4:35 AM 55.8 °F 52.3 °F 88% 30.00 in 10.0 mi NW 6.9 mph - N/A   Clear
4:55 AM 55.6 °F 52.3 °F 89% 30.00 in 10.0 mi NW 6.9 mph - N/A   Clear
5:14 AM 55.4 °F 52.2 °F 89% 30.01 in 10.0 mi NW 8.1 mph - N/A   Clear
5:34 AM 55.4 °F 52.2 °F 89% 30.03 in 10.0 mi NW 8.1 mph - N/A   Clear
5:54 AM 55.6 °F 52.5 °F 89% 30.03 in 10.0 mi NW 8.1 mph - N/A   Clear
6:14 AM 55.0 °F 52.3 °F 91% 30.04 in 10.0 mi NW 4.6 mph - N/A   Clear
6:34 AM 54.5 °F 52.2 °F 92% 30.05 in 10.0 mi NW 5.8 mph - N/A   Clear
6:54 AM 54.3 °F 52.0 °F 92% 30.05 in 10.0 mi NW 5.8 mph - N/A   Clear
7:14 AM 54.1 °F 51.8 °F 92% 30.06 in 10.0 mi WNW 6.9 mph - N/A   Clear
7:34 AM 54.5 °F 51.8 °F 91% 30.06 in 10.0 mi WNW 6.9 mph - N/A   Clear
7:55 AM 54.5 °F 51.8 °F 91% 30.07 in 10.0 mi WNW 6.9 mph - N/A   Clear
8:14 AM 55.4 °F 52.0 °F 88% 30.08 in 10.0 mi NW 8.1 mph - N/A   Clear
8:34 AM 54.9 °F 51.6 °F 89% 30.09 in 10.0 mi NW 9.2 mph - N/A   Clear
8:54 AM 55.9 °F 51.8 °F 86% 30.09 in 10.0 mi NW 9.2 mph - N/A   Clear
9:15 AM 57.0 °F 51.4 °F 82% 30.09 in 10.0 mi NW 8.1 mph - N/A   Mostly Cloudy
9:34 AM 57.7 °F 51.4 °F 79% 30.09 in 10.0 mi NW 9.2 mph - N/A   Mostly Cloudy
9:54 AM 59.5 °F 51.1 °F 74% 30.09 in 10.0 mi NW 13.8 mph 17.3 mph N/A   Overcast
10:14 AM 61.3 °F 50.7 °F 68% 30.09 in 10.0 mi NW 10.4 mph 18.4 mph N/A   Mostly Cloudy
10:34 AM 61.0 °F 49.5 °F 66% 30.10 in 10.0 mi NNW 11.5 mph - N/A   Mostly Cloudy
10:55 AM 62.2 °F 49.5 °F 63% 30.10 in 10.0 mi NNW 11.5 mph 18.4 mph N/A   Scattered Clouds
11:14 AM 63.0 °F 48.2 °F 59% 30.09 in 10.0 mi North 12.7 mph - N/A   Clear
11:35 AM 63.3 °F 48.0 °F 57% 30.09 in 10.0 mi NNW 13.8 mph 20.7 mph N/A   Mostly Cloudy
11:54 AM 64.4 °F 46.8 °F 53% 30.09 in 10.0 mi NNW 12.7 mph 17.3 mph N/A   Mostly Cloudy
12:14 PM 63.5 °F 46.0 °F 53% 30.09 in 10.0 mi NNW 11.5 mph 23.0 mph N/A   Mostly Cloudy
12:35 PM 65.5 °F 44.4 °F 46% 30.09 in 10.0 mi NNW 11.5 mph - N/A   Mostly Cloudy
12:55 PM 65.7 °F 43.9 °F 45% 30.09 in 10.0 mi NNW 12.7 mph 24.2 mph N/A   Mostly Cloudy
1:14 PM 65.3 °F 44.1 °F 46% 30.09 in 10.0 mi NNW 12.7 mph 18.4 mph N/A   Mostly Cloudy
1:34 PM 65.8 °F 43.0 °F 43% 30.09 in 10.0 mi NW 11.5 mph 23.0 mph N/A   Mostly Cloudy
1:54 PM 66.9 °F 43.2 °F 42% 30.09 in 10.0 mi NNW 13.8 mph 20.7 mph N/A   Mostly Cloudy
2:14 PM 66.2 °F 43.3 °F 44% 30.09 in 10.0 mi NNW 15.0 mph 21.9 mph N/A   Overcast
2:39 PM 66.2 °F 42.8 °F 43% 30.09 in 10.0 mi NNW 15.0 mph 21.9 mph N/A   Overcast
2:59 PM 66.9 °F 42.6 °F 41% 30.09 in 10.0 mi NNW 15.0 mph - N/A   Overcast
3:14 PM 66.2 °F 42.3 °F 42% 30.09 in 10.0 mi North 12.7 mph 19.6 mph N/A   Overcast
3:34 PM 67.3 °F 40.6 °F 38% 30.09 in 10.0 mi NW 12.7 mph 20.7 mph N/A   Overcast
3:55 PM 68.5 °F 39.6 °F 35% 30.09 in 10.0 mi NNW 13.8 mph 23.0 mph N/A   Overcast
4:14 PM 66.4 °F 40.3 °F 38% 30.09 in 10.0 mi NW 13.8 mph 23.0 mph N/A   Overcast
4:55 PM 66.2 °F 40.6 °F 39% 30.09 in 10.0 mi North 15.0 mph 19.6 mph N/A   Overcast
5:14 PM 66.0 °F 40.5 °F 39% 30.09 in 10.0 mi NNW 12.7 mph 21.9 mph N/A   Overcast
5:34 PM 65.7 °F 41.0 °F 41% 30.10 in 10.0 mi NW 13.8 mph - N/A   Mostly Cloudy
5:53 PM 65.8 °F 41.2 °F 41% 30.10 in 10.0 mi NNW 9.2 mph 19.6 mph N/A   Mostly Cloudy
6:14 PM 65.5 °F 40.8 °F 41% 30.10 in 10.0 mi NW 9.2 mph - N/A   Mostly Cloudy
6:34 PM 64.9 °F 41.2 °F 42% 30.10 in 10.0 mi NNW 9.2 mph - N/A   Mostly Cloudy
6:54 PM 64.0 °F 41.0 °F 43% 30.10 in 10.0 mi NNW 10.4 mph 16.1 mph N/A   Mostly Cloudy
7:14 PM 62.8 °F 41.4 °F 45% 30.10 in 10.0 mi NW 9.2 mph - N/A   Scattered Clouds
7:34 PM 62.2 °F 42.1 °F 48% 30.10 in 10.0 mi NW 8.1 mph - N/A   Mostly Cloudy
7:54 PM 60.4 °F 42.6 °F 52% 30.10 in 10.0 mi NW 6.9 mph - N/A   Scattered Clouds
8:14 PM 57.9 °F 43.2 °F 58% 30.10 in 10.0 mi WNW 4.6 mph - N/A   Clear
8:34 PM 55.8 °F 43.2 °F 63% 30.11 in 10.0 mi WNW 5.8 mph - N/A   Clear
8:54 PM 54.9 °F 43.7 °F 66% 30.11 in 10.0 mi West 8.1 mph - N/A   Clear
9:14 PM 54.9 °F 43.9 °F 66% 30.11 in 10.0 mi West 6.9 mph - N/A   Clear
9:34 PM 54.5 °F 43.9 °F 67% 30.12 in 10.0 mi West 5.8 mph - N/A   Clear
9:54 PM 54.1 °F 43.7 °F 68% 30.12 in 10.0 mi West 6.9 mph - N/A   Clear
10:14 PM 54.1 °F 43.7 °F 68% 30.12 in 10.0 mi West 6.9 mph - N/A   Clear
10:35 PM 53.8 °F 43.7 °F 69% 30.12 in 10.0 mi West 5.8 mph - N/A   Clear
10:54 PM 53.2 °F 43.7 °F 70% 30.12 in 10.0 mi West 6.9 mph - N/A   Clear
11:34 PM 52.0 °F 43.3 °F 72% 30.12 in 10.0 mi West 6.9 mph - N/A   Clear
11:54 PM 52.3 °F 43.3 °F 71% 30.12 in 10.0 mi WNW 8.1 mph - N/A   Clear